Content
SEND FEEDBACK

Daily
Averages
Monthly
Summary
United Kingdom

LONDON, ENGLAND


Home > Europe > United Kingdom > England
Elevation: 203 feet     Latitude: 51 09N     Longitude: 000 11W

WEATHER
 
SELECT A DAY
Number of Records: 299,432;   Date Range: 7/1/96 - 12/18/14
 
SHARE

PRINT THIS DATA

[ ← Previous Day ]
WEATHER ALMANAC - FEBRUARY 9, 2013
[ Next Day → ]
[ °C ]   °F
Weather ElementAverageHighLow
Temperature36.2 °F37.4 °F (12:50 am)33.8 °F (3:50 am)
Dewpoint32.8 °F35.6 °F (9:20 pm)30.2 °F (12:50 am)
Humidity87.5 %93 % (10:50 am)75 % (12:50 am)
Barometer30.07 in30.15 in (12:50 am)29.86 in (11:50 pm)
Wind Speed4.3 mph15 mph (1:50 am)
Weather ElementAverage
Visibility5 mi
Wind DirectionESE (122.6 °)

Weather ElementTotal
Precipitation---
Heating Degree Days29.4 (Base 65)
Averaged from 47 records on February 9, 2013
WEATHER CONDITIONS BREAKOUT
WIND DIRECTION BREAKOUT
WEATHER BY HOUR - FEBRUARY 9, 2013
[ °C ]   °F
Local TimeTemperatureDewpointHumidityBarometerVisibilityWind DirectionWind SpeedGust SpeedPrecipitationEventsConditions
12:50 AM37.4 °F30.2 °F75 %30.15 in6.2 miNorth (10°)12.7 mphMostly Cloudy
1:20 AM37.4 °F32.0 °F81 %30.12 in6.2 miNorth (10°)12.7 mphMostly Cloudy
1:50 AM35.6 °F32.0 °F87 %30.12 in6.2 miNorth (360°)15.0 mphMostly Cloudy
2:20 AM35.6 °F32.0 °F87 %30.15 in6.2 miNNE (20°)6.9 mphMostly Cloudy
2:50 AM35.6 °F30.2 °F81 %30.15 in6.2 miNorth (350°)8.1 mphScattered Clouds
3:20 AM35.6 °F30.2 °F81 %30.15 in6.2 miVariable2.3 mphMostly Cloudy
3:50 AM33.8 °F30.2 °F87 %30.12 in6.2 miCalmMostly Cloudy
4:20 AM33.8 °F30.2 °F87 %30.12 in6.2 miNNW (330°)2.3 mphScattered Clouds
4:50 AM33.8 °F30.2 °F87 %30.15 in6.2 miNNW (330°)2.3 mphPartly Cloudy
5:20 AM33.8 °F30.2 °F87 %30.12 inVariable3.5 mphClear
5:50 AM33.8 °F30.2 °F87 %30.12 inVariable2.3 mphClear
6:20 AM35.6 °F30.2 °F81 %30.12 inWNW (290°)4.6 mphClear
6:50 AM33.8 °F30.2 °F87 %30.12 in6.2 miWNW (290°)4.6 mphPartly Cloudy
7:20 AM33.8 °F30.2 °F87 %30.12 in6.2 miVariable3.5 mphScattered Clouds
7:50 AM33.8 °F30.2 °F87 %30.12 in6.2 miSouth (180°)3.5 mphMostly Cloudy
8:20 AM35.6 °F30.2 °F81 %30.12 in6.2 miSSW (200°)3.5 mphMostly Cloudy
8:50 AM35.6 °F32.0 °F87 %30.12 in6.2 miSSW (210°)3.5 mphRainLight Rain
9:20 AM35.6 °F32.0 °F87 %30.15 in5.6 miSW (220°)4.6 mphRainLight Rain
9:50 AM35.6 °F32.0 °F87 %30.15 in5.6 miSW (230°)3.5 mphRainLight Rain
10:20 AM35.6 °F32.0 °F87 %30.15 in4.3 miSW (230°)4.6 mphRainLight Rain
10:50 AM35.6 °F33.8 °F93 %30.12 in3.1 miSW (220°)4.6 mphRainLight Rain
11:20 AM35.6 °F33.8 °F93 %30.12 in3.1 miSW (220°)4.6 mphRainLight Rain
11:50 AM37.4 °F33.8 °F87 %30.12 in4.3 miSW (220°)3.5 mphRainLight Rain
12:20 PM37.4 °F33.8 °F87 %30.09 in4.3 miSW (230°)3.5 mphRainLight Rain
12:50 PM37.4 °F33.8 °F87 %30.09 in5.0 miSW (230°)3.5 mphMostly Cloudy
1:20 PM37.4 °F33.8 °F87 %30.09 in6.2 miVariable3.5 mphMostly Cloudy
1:50 PM37.4 °F33.8 °F87 %30.09 in5.6 miWSW (240°)3.5 mphRainLight Rain
2:20 PM37.4 °F33.8 °F87 %30.06 in3.7 miVariable2.3 mphRainLight Rain
2:50 PM37.4 °F33.8 °F87 %30.06 in5.6 miVariable2.3 mphRainLight Rain
3:20 PM37.4 °F33.8 °F87 %30.06 in6.2 miVariable3.5 mphRainLight Rain
3:50 PM37.4 °F33.8 °F87 %30.04 in6.2 miSouth (170°)3.5 mphRainLight Rain
4:20 PM37.4 °F33.8 °F87 %30.04 in5.6 miSE (140°)4.6 mphRainLight Rain
4:50 PM37.4 °F33.8 °F87 %30.04 in3.7 miVariable3.5 mphRainLight Rain
5:20 PM37.4 °F33.8 °F87 %30.04 in5.0 miVariable3.5 mphMostly Cloudy
5:50 PM37.4 °F33.8 °F87 %30.01 in5.0 miESE (110°)3.5 mphMostly Cloudy
6:20 PM37.4 °F33.8 °F87 %30.01 in4.3 miVariable3.5 mphMostly Cloudy
6:50 PM37.4 °F33.8 °F87 %30.01 in3.7 miVariable3.5 mphMostly Cloudy
7:20 PM37.4 °F33.8 °F87 %30.01 in2.5 miVariable3.5 mphLight Drizzle
7:50 PM35.6 °F33.8 °F93 %29.98 inVariable3.5 mphLight Drizzle
8:20 PM35.6 °F33.8 °F93 %29.98 in2.2 miESE (110°)3.5 mphLight Drizzle
8:50 PM35.6 °F33.8 °F93 %29.95 inESE (110°)3.5 mphLight Drizzle
9:20 PM37.4 °F35.6 °F93 %29.95 in2.2 miVariable3.5 mphLight Drizzle
9:50 PM37.4 °F35.6 °F93 %29.92 inEast (100°)3.5 mphLight Drizzle
10:20 PM37.4 °F35.6 °F93 %29.92 in3.1 miESE (110°)3.5 mphLight Drizzle
10:50 PM37.4 °F35.6 °F93 %29.89 inVariable2.3 mphRainLight Rain
11:20 PM37.4 °F35.6 °F93 %29.89 in3.1 miSE (130°)4.6 mphLight Drizzle
11:50 PM37.4 °F35.6 °F93 %29.86 in3.1 miSSE (160°)5.8 mphLight Drizzle
Hourly data recorded from EGKK, located miles away from London, England







STORIES FROM OUR PARTNERS